Regional Weather Roundup
Issued by NWS

Home | Current Version | Previous Version | Text Only | Print | Product List | Glossary Off
Versions: 1 2 3 4 5 6 7 8 9 10 11 12 13 14 15 16 17 18 19 20 21 22 23 24 25 26 27 28 29 30 31 32 33 34 35 36 37 38 39 40 41 42 43 44 45 46 47 48 49 50

289
ASUS43 KMPX 241610
RWRMN
WEATHER ROUNDUP FOR MINNESOTA
NATIONAL WEATHER SERVICE TWIN CITIES/CHANHASSEN MN
1100 AM CDT SAT SEP 24 2016


NOTE: "FAIR" INDICATES FEW OR NO CLOUDS BELOW 12,000 FEET WITH NO
SIGNIFICANT WEATHER AND/OR OBSTRUCTIONS TO VISIBILITY. N/A MEANS
CURRENT SKY AND/OR WEATHER CONDITIONS ARE NOT AVAILABLE.

MNZ060>063-068>070-241700-
   Twin Cities Metro

CITY           SKY/WX    TMP DP  RH WIND       PRES   REMARKS
TWIN CITIES    CLOUDY    65  61  87 SE15      30.09S
ST PAUL        CLOUDY    65  61  87 SE14G22   30.10S
CRYSTAL        CLOUDY    65  60  84 SE12      30.07S
BLAINE         CLOUDY    66  64  94 SE12G17   30.09S
LAKEVILLE      CLOUDY    64  64 100 SE10      30.09S
EDEN PRAIRIE   CLOUDY    67  62  84 SE14      30.07S
LAKEVILLE      CLOUDY    64  64 100 SE10      30.09S
SOUTH ST PAUL  CLOUDY    65  62  91 SE7       30.10S
LAKE ELMO      CLOUDY    64  61  88 SE13      30.12S
$$
MNZ001>005-007-008-013>017-022>024-027-028-241700-
   Northwest Minnesota

CITY           SKY/WX    TMP DP  RH WIND       PRES   REMARKS
BEMIDJI        CLOUDY    62  61  96 SE12      30.01R
HALLOCK        CLOUDY    66  63  88 SE14G20   29.89S
ROSEAU         CLOUDY    63  57  82 SE8       29.96S
WARROAD        CLOUDY    59  55  88 E8        29.98S FOG
THIEF RVR FALL PTSUNNY   69  63  81 SE15      29.93R
CROOKSTON      MOSUNNY   72  64  78 S18G24    29.90R
FOSSTON        CLOUDY    70  63  78 SE14G24   29.95R
DETROIT LAKES  CLOUDY    64  63  94 SE15      29.97S
MOORHEAD       MOSUNNY   73  64  73 SE18G30   29.89F
PARK RAPIDS    CLOUDY    64  61  90 SE16G24   30.01S FOG
MAHNOMEN       CLOUDY    68  63  82 SE20G26   29.94S
$$
MNZ006-009>011-018-025>026-241700-
   North Central Minnesota

CITY           SKY/WX    TMP DP  RH WIND       PRES   REMARKS
BAUDETTE       CLOUDY    60  58  92 SE12      30.01S
FLAG ISLAND    CLOUDY    57  57 100 SE6       30.00S FOG
INTL FALLS     CLOUDY    60  56  86 SE9       30.07F
WASKISH        CLOUDY    64  61  88 SE13G22   30.00F
BIG FORK       CLOUDY    61  55  82 SE7       30.07F
GRAND RAPIDS   CLOUDY    59  56  89 SE9       30.10F
CRANE LAKE     CLOUDY    59  55  88 CALM      30.13S
ORR            CLOUDY    61  52  72 S12       30.08F
COOK           CLOUDY    61  55  82 SE7       30.12F
WALKER         CLOUDY    62  60  95 SE10      30.03S
$$
MNZ012-019>021-037-241700-
   Northeast Minnesota

CITY           SKY/WX    TMP DP  RH WIND       PRES   REMARKS
DULUTH         CLOUDY    57  57 100 SE9       30.15S FOG
ELY            CLOUDY    61  54  77 SE10      30.15F
HIBBING        CLOUDY    57  54  89 SE12      30.12F
EVELETH        CLOUDY    58  54  87 SE9       30.15S
DULUTH HARBOR  CLOUDY    57  55  94 NE9       30.16S
TWO HARBORS    CLOUDY    63  55  77 E8        30.16S
SILVER BAY     CLOUDY    61  55  82 E8        30.17F
GRAND MARAIS     N/A     61  55  81 E8        30.21F
G MARAIS ARPRT PTSUNNY   55  48  76 SE9G17    30.23F
$$
MNZ029>031-032-039>041-046>048-054>057-064-241700-
   West Central Minnesota

CITY           SKY/WX    TMP DP  RH WIND       PRES   REMARKS
FERGUS FALLS   MOSUNNY   72  66  83 SE22G29   29.95S
WHEATON        MOSUNNY   73  68  83 SE22G30   29.91F
MORRIS         SUNNY     72  66  83 SE21G26   29.93F
ALEXANDRIA     CLOUDY    66  66 100 SE15G29   30.02R FOG
ELBOW LAKE     CLOUDY    68  65  89 E21G29    29.95F
GLENWOOD       CLOUDY    66  64  94 SE15G24   30.01F FOG
BENSON         CLOUDY    70  63  78 S16G24    29.97F
ORTONVILLE     PTSUNNY   72  66  83 SE17G24   29.91F
MADISON          N/A     77  66  69 SE22      29.92F
WILLMAR        CLOUDY    68  64  88 SE14G24   30.02F FOG
$$
MNZ033>034-036-042>043-049>051-058-059-241700-
   Central Minnesota

CITY           SKY/WX    TMP DP  RH WIND       PRES   REMARKS
ST CLOUD       CLOUDY    63  63 100 SE12G18   30.07R FOG
SAUK CENTRE    CLOUDY    64  63  98 SE13      30.04S FOG
PAYNESVILLE    CLOUDY    65  65 100 SE9       30.04F FOG
AITKIN         CLOUDY    63  57  82 SE9G18    30.07F HAZE
PINE RIVER     CLOUDY    61  61 100 SE9G17    30.08S FOG
BRAINERD       CLOUDY    61  60  97 SE7       30.06F FOG
STAPLES        CLOUDY    61  61 100 SE9       30.04R FOG
LONG PRAIRIE   CLOUDY    63  63 100 E10G17    30.04S FOG
LITTLE FALLS   CLOUDY    61  59  94 SE10G16   30.06S FOG
LITCHFIELD     CLOUDY    66  66 100 SE10G17   30.05R FOG
BUFFALO        CLOUDY    64  61  91 SE10      30.08R
MAPLE LAKE     CLOUDY    65  64  98 SE5       30.07S FOG
HUTCHINSON     CLOUDY    67  65  94 SE10G16   30.06F FOG
$$
MNZ037-044-045-052-053-241700-
   East Central Minnesota

CITY           SKY/WX    TMP DP  RH WIND       PRES   REMARKS
PRINCETON      CLOUDY    63  63 100 E8        30.08F FOG
MORA           CLOUDY    59  59 100 SE8       30.11F FOG
CAMBRIDGE      CLOUDY    64  61  88 SE8       30.08F HAZE
MOOSE LAKE     CLOUDY    59  55  88 SE5       30.11F FOG
HINCKLEY       CLOUDY    61  61 100 SE8       30.11F FOG
CLOQUET        CLOUDY    57  54  88 E6        30.14F FOG
MCGREGOR       CLOUDY    59  57  94 SE9       30.10F
$$
MNZ071>073-080-081-089-090-097-098-241700-
   Southwest Minnesota

CITY           SKY/WX    TMP DP  RH WIND       PRES   REMARKS
MONTEVIDEO     CLOUDY    73  66  78 S20       29.98S
GRANITE FALLS  CLOUDY    72  66  83 SE17      29.98S
CANBY          MOSUNNY   75  68  78 E16G22    29.93F
MARSHALL       CLOUDY    72  67  84 SE18G24   29.95F
REDWOOD FALLS  PTSUNNY   72  64  76 SE17G26   29.99F
OLIVIA         CLOUDY    70  64  83 SE16      30.00F
PIPESTONE      CLOUDY    75  66  73 SE18G26   29.95R
WINDOM         MOSUNNY   73  64  73 SE18G24   30.01S
WORTHINGTON    MOSUNNY   75  66  73 SE20G26   29.99F
JACKSON        PTSUNNY   73  63  68 SE15      30.03R
TRACY          CLOUDY    74  69  85 SE14G22   29.97F
SLAYTON        CLOUDY    72  66  83 SE18G25   29.98F
$$
MNZ065>067-074>077-082>085-091>093-241700-
   South Central Minnesota

CITY           SKY/WX    TMP DP  RH WIND       PRES   REMARKS
MANKATO        CLOUDY    67  63  87 SE16      30.06S
NEW ULM        CLOUDY    70  66  88 SE15G23   30.03F
ST JAMES       PTSUNNY   72  64  78 E16G23    30.03F
FAIRMONT       CLOUDY    70  65  84 SE18      30.04F
GLENCOE        CLOUDY    69  66  92 SE13      30.04F
FARIBAULT      CLOUDY    66  63  88 SE14      30.10R
OWATONNA       CLOUDY    66  63  88 SE15      30.10S HAZE
WASECA         CLOUDY    64  61  88 SE17G23   30.09F FOG
ALBERT LEA     CLOUDY    66  64  94 SE13      30.10F FOG
$$
MNZ078>079-086>088-094>096-241700-
   Southeast Minnesota

CITY           SKY/WX    TMP DP  RH WIND       PRES   REMARKS
ROCHESTER      CLOUDY    65  64  97 SE12      30.15R FOG
RED WING       CLOUDY    64  63  94 SE13G18   30.11F FOG
STANTON        CLOUDY    66  62  85 SE10      30.10S
DODGE CENTER   CLOUDY    64  63  94 SE13G20   30.13R FOG
WINONA         CLOUDY    63  61  94 SE12      30.16S FOG
AUSTIN         CLOUDY    64  63  94 SE13      30.12S FOG
PRESTON        CLOUDY    64  62  94 SE10      30.16R FOG
$$
ABBREVIATIONS USED IN REMARKS
   TC - TEMPERATURES IN CELSIUS
  WCI - WIND CHILL INDEX
   HX - HEAT INDEX
  VSB - VISIBILITY
$$




USA.gov is the U.S. government's official web portal to all federal, state and local government web resources and services.